This demonstration page uses our WeatherBlox Daily Observations layout. Learn more.

Left ArrowRight Arrow

31.31129, -92.44514

Hourly Observations for December 29, 2021

Temp ( °F °C ) Dew Point ( °F °C ) Humidity (%) Winds ( mph kmh ) Pressure ( in mb ) Visibility ( mi km ) Precip ( " mm )
12:53 am 00:53 Mostly Cloudy with Mist and Fog 71 21.7 68 20 90 90 SSE 8 13 29.77 1008 6 10 0.00 0.00
1:13 am 01:13 Cloudy with Mist and Fog 72 22.2 68 20 87 87 SSE 9 15 29.76 1008 6 10 0.00 0.00
1:46 am 01:46 Cloudy 73 22.8 69 20.6 87 87 SSW 8 13 29.76 1008 8 13 0.00 0.00
1:53 am 01:53 Cloudy 73 22.8 69 20.6 87 87 S 7 11 29.76 1008 8 13 0.00 0.00
2:43 am 02:43 Cloudy 73 22.8 69 20.6 87 87 S 7 11 29.76 1008 8 13 0.00 0.00
2:53 am 02:53 Cloudy 74 23.3 69 20.6 85 85 S 8 13 29.77 1008 8 13 0.00 0.00
3:53 am 03:53 Mostly Cloudy 73 22.8 68 20 84 84 S 12 19 29.75 1008 9 14 0.00 0.00
4:10 am 04:10 Mostly Cloudy 73 22.8 68 20 84 84 S 13 20 29.74 1007 9 14 0.00 0.00
4:53 am 04:53 Partly Cloudy 74 23.3 68 20 82 82 SSW 12 19 29.76 1008 10 16 0.00 0.00
5:53 am 05:53 Clear 73 22.8 68 20 84 84 S 7 11 29.77 1008 10 16 0.00 0.00
6:53 am 06:53 Partly Cloudy 72 22.2 68 20 87 87 S 6 9 29.78 1009 9 14 0.00 0.00
7:10 am 07:10 Mostly Cloudy 71 21.7 67 19.4 87 87 SSE 6 9 29.78 1008 9 14 0.00 0.00
7:53 am 07:53 Partly Cloudy 73 22.8 68 20 84 84 S 9 15 29.79 1009 9 14 0.00 0.00
8:30 am 08:30 Mostly Cloudy 75 23.9 69 20.6 82 82 SSE 10 17 29.78 1008 9 14 0.00 0.00
8:53 am 08:53 Mostly Cloudy 75 23.9 70 21.1 84 84 S 12 19 29.80 1009 8 13 0.00 0.00
9:53 am 09:53 Cloudy 77 25 69 20.6 77 77 S 10 17 29.80 1009 9 14 0.00 0.00
10:29 am 10:29 Mostly Cloudy 78 25.6 69 20.6 74 74 S 10 17 29.80 1009 10 16 0.00 0.00
10:38 am 10:38 Cloudy 78 25.6 69 20.6 74 74 SSW 16 26 29.79 1009 10 16 0.00 0.00
10:53 am 10:53 Cloudy 80 26.7 69 20.6 69 69 SSW 14 22 29.79 1009 10 16 0.00 0.00
11:07 am 11:07 Cloudy 80 26.7 69 20.6 69 69 SSW 17 28 29.77 1008 10 16 0.00 0.00
11:53 am 11:53 Partly Cloudy 82 27.8 69 20.6 65 65 SSW 23 37 29.77 1008 10 16 0.00 0.00
12:53 pm 12:53 Mostly Sunny 82 27.8 68 20 63 63 SSW 14 22 29.74 1007 10 16 0.00 0.00
1:53 pm 13:53 Mostly Cloudy 81 27.2 67 19.4 62 62 SW 16 26 29.73 1007 10 16 0.00 0.00
2:53 pm 14:53 Partly Cloudy 83 28.3 67 19.4 59 59 SW 12 19 29.73 1007 9 14 0.00 0.00
3:53 pm 15:53 Mostly Cloudy 81 27.2 67 19.4 62 62 SW 9 15 29.75 1007 9 14 0.00 0.00
4:53 pm 16:53 Mostly Sunny 79 26.1 67 19.4 67 67 SW 8 13 29.76 1008 8 13 0.00 0.00
5:53 pm 17:53 Partly Cloudy 77 25 67 19.4 71 71 SW 6 9 29.78 1008 9 14 0.00 0.00
6:53 pm 18:53 Clear 73 22.8 67 19.4 81 81 S 7 11 29.79 1009 7 11 0.00 0.00
7:53 pm 19:53 Clear 71 21.7 67 19.4 87 87 SSE 3 6 29.81 1009 7 11 0.00 0.00
8:53 pm 20:53 Clear with Mist and Fog 70 21.1 66 18.9 87 87 SSE 8 13 29.81 1010 5 8 0.00 0.00
9:53 pm 21:53 Mostly Clear with Mist and Fog 71 21.7 68 20 90 90 Calm 29.83 1010 4 6 0.00 0.00
10:03 pm 22:03 Mostly Clear with Mist and Fog 70 21.1 68 20 93 93 Calm 29.83 1010 5 8 0.00 0.00
10:53 pm 22:53 Clear with Mist and Fog 69 20.6 67 19.4 93 93 Calm 29.84 1011 5 8 0.00 0.00
11:14 pm 23:14 Partly Cloudy with Mist and Fog 70 21.1 68 20 93 93 Calm 29.84 1010 3 5 0.00 0.00
11:20 pm 23:20 Mostly Cloudy with Mist and Fog 69 20.6 66 18.9 90 90 Calm 29.84 1010 3 4 0.00 0.00
11:45 pm 23:45 Cloudy with Mist and Fog 71 21.7 68 20 90 90 Calm 29.84 1010 4 6 0.00 0.00
11:53 pm 23:53 Cloudy with Mist and Fog 72 22.2 69 20.6 91 91 Calm 29.84 1011 4 6 0.00 0.00

Powered by AerisWeather